Tallahassee, FL

7:09 PM EST on February 06, 2016 (GMT -0500)
Tallahassee Regional

Weather History for KTLH - May, 2013

Change the Weather History Date:

Thursday, May 9, 2013

  Actual Average Record
Temperature  
Mean Temperature 72 °F 72 °F  
Max Temperature 87 °F 86 °F 95 °F (2002)
Min Temperature 57 °F 59 °F 42 °F (1928)
Degree Days  
Heating Degree Days 0    
Month to date heating degree days 13  
Since 1 July heating degree days 1331  
Cooling Degree Days 7    
Month to date cooling degree days 28  
Year to date cooling degree days 225  
Growing Degree Days 22 (Base 50)    
Moisture  
Dew Point 58 °F    
Average Humidity 66    
Maximum Humidity 100    
Minimum Humidity 32    
Precipitation  
Precipitation 0.00 in 0.10 in 2.00 in (1915)
Month to date precipitation 0.33 0.78  
Year to date precipitation 22.29 18.97  
Sea Level Pressure  
Sea Level Pressure 30.12 in    
Wind  
Wind Speed 3 mph (South)    
Max Wind Speed 12 mph    
Max Gust Speed 14 mph    
Visibility 6 miles    
Events Fog    
T = Trace of Precipitation, MM = Missing Value Source: NWS Daily Summary

Daily Weather History Graph

Daily Weather History Graph

Search for Another Location

Airport or City:

Trip Planner

Search our weather history database for the weather conditions in past years. The results will help you decide how hot, cold, wet, or windy it might be!

Date:

Astronomy

May. 09, 2013 Rise Set
Actual Time 6:47 AM EDT 8:20 PM EDT
Civil Twilight 6:21 AM EDT 8:46 PM EDT
Nautical Twilight 5:50 AM EDT 9:18 PM EDT
Astronomical Twilight 5:17 AM EDT 9:50 PM EDT
Moon 6:29 AM EDT (5/9) 8:15 PM EDT (5/9)
Length of Visible Light 14h 25m
Length of Day
13h 33m
Waning Crescent, 0% of the Moon is Illuminated
May 9
Waning Crescent
May 9
New
May 18
First Quarter
May 25
Full
May 31
Last Quarter

Hourly Weather History & Observations

Time (EDT) Temp. Heat Index Dew Point Humidity Pressure Visibility Wind Dir Wind Speed Gust Speed Precip Events Conditions
12:53 AM 62.1 °F - 57.9 °F 86% 30.12 in 10.0 mi Calm Calm - N/A   Clear
1:53 AM 62.1 °F - 57.9 °F 86% 30.10 in 10.0 mi Calm Calm - N/A   Clear
2:53 AM 59.0 °F - 55.0 °F 87% 30.09 in 9.0 mi Calm Calm - N/A   Clear
3:15 AM 57.2 °F - 55.4 °F 94% 30.09 in 7.0 mi Calm Calm - N/A   Scattered Clouds
3:23 AM 57.2 °F - 55.4 °F 94% 30.09 in 8.0 mi Calm Calm - N/A   Mostly Cloudy
3:29 AM 57.2 °F - 55.4 °F 94% 30.09 in 1.0 mi Variable 4.6 mph - N/A   Mist
3:36 AM 57.2 °F - 55.4 °F 94% 30.09 in 0.5 mi Calm Calm - N/A Fog Fog
3:46 AM 57.2 °F - 55.4 °F 94% 30.08 in 2.0 mi Calm Calm - N/A   Overcast
3:53 AM 59.0 °F - 55.9 °F 90% 30.08 in 3.0 mi Calm Calm - N/A   Overcast
3:56 AM 59.0 °F - 55.4 °F 88% 30.08 in 1.5 mi Calm Calm - N/A   Overcast
4:02 AM 59.0 °F - 57.2 °F 94% 30.09 in 0.2 mi Calm Calm - N/A Fog Fog
4:53 AM 60.1 °F - 57.9 °F 93% 30.09 in 0.2 mi SSE 4.6 mph - N/A Fog Fog
5:53 AM 61.0 °F - 59.0 °F 93% 30.10 in 0.2 mi Calm Calm - N/A Fog Fog
6:53 AM 62.1 °F - 60.1 °F 93% 30.12 in 0.2 mi Calm Calm - N/A Fog Fog
7:06 AM 62.6 °F - 60.8 °F 94% 30.13 in 0.2 mi Calm Calm - N/A Fog Fog
7:53 AM 63.0 °F - 62.1 °F 97% 30.14 in 0.2 mi Calm Calm - N/A Fog Fog
8:42 AM 64.4 °F - 62.6 °F 94% 30.14 in 0.5 mi Calm Calm - N/A Fog Fog
8:53 AM 64.0 °F - 62.1 °F 93% 30.14 in 0.5 mi Calm Calm - N/A Fog Fog
9:02 AM 64.4 °F - 62.6 °F 94% 30.15 in 1.2 mi Calm Calm - N/A   Overcast
9:14 AM 64.4 °F - 62.6 °F 94% 30.15 in 2.5 mi Calm Calm - N/A   Overcast
9:22 AM 64.4 °F - 62.6 °F 94% 30.15 in 4.0 mi Calm Calm - N/A   Overcast
9:53 AM 66.0 °F - 63.0 °F 90% 30.16 in 9.0 mi Calm Calm - N/A   Overcast
10:23 AM 69.8 °F - 62.6 °F 78% 30.16 in 10.0 mi SW 4.6 mph - N/A   Scattered Clouds
10:53 AM 73.0 °F - 63.0 °F 71% 30.16 in 10.0 mi Calm Calm - N/A   Clear
11:53 AM 80.1 °F 81.2 °F 62.1 °F 54% 30.16 in 10.0 mi Variable 4.6 mph - N/A   Partly Cloudy
12:53 PM 80.6 °F 80.5 °F 55.4 °F 42% 30.15 in 10.0 mi SW 6.9 mph - N/A   Scattered Clouds
1:53 PM 82.9 °F 82.1 °F 55.9 °F 39% 30.14 in 10.0 mi Variable 4.6 mph - N/A   Scattered Clouds
2:53 PM 84.0 °F - 52.0 °F 33% 30.12 in 10.0 mi Calm Calm - N/A   Scattered Clouds
3:53 PM 84.9 °F - 52.0 °F 32% 30.10 in 10.0 mi Variable 4.6 mph - N/A   Mostly Cloudy
4:53 PM 82.9 °F 81.9 °F 54.0 °F 37% 30.09 in 10.0 mi Variable 5.8 mph - N/A   Scattered Clouds
5:53 PM 82.0 °F 81.6 °F 55.9 °F 41% 30.08 in 10.0 mi South 6.9 mph - N/A   Scattered Clouds
6:53 PM 82.0 °F 81.6 °F 55.9 °F 41% 30.08 in 10.0 mi South 9.2 mph - N/A   Partly Cloudy
7:53 PM 79.0 °F - 55.9 °F 45% 30.08 in 10.0 mi South 5.8 mph - N/A   Partly Cloudy
8:53 PM 75.0 °F - 55.9 °F 51% 30.10 in 10.0 mi South 3.5 mph - N/A   Partly Cloudy
9:53 PM 71.6 °F - 57.2 °F 60% 30.12 in 10.0 mi SW 4.6 mph - N/A   Clear
10:53 PM 68.0 °F - 57.0 °F 68% 30.12 in 10.0 mi Calm Calm - N/A   Clear
11:53 PM 68.0 °F - 57.0 °F 68% 30.14 in 10.0 mi Calm Calm - N/A   Clear